Flag for Norway Weather past 2 weeks in Mosjøen, Norway

Now
45 °F

Quite cool.


Feels Like: 41 °F
Forecast: 38 / 43 °F
Wind: 6 mph from South

Location: Mosjoen Kjaerstad

Current Time: Oct 24, 2014 at 6:25:51 PM

Latest Report: Oct 24, 2014 at 5:00 PM


Visibility: N/A

Pressure: 29.68 "Hg

Humidity: 82%

Dew point: 39 °F

Location of MosjøenLocation

Historic Weather in Mosjøen — Graph

°F

Mosjøen temperature yesterday

Maximum temperature yesterday: 41 °F (at 5:00 AM)
Minimum temperature yesterday: 36 °F (at 7:00 PM)
Average temperature yesterday: 39 °F

Past Weeks' High & Low Weather Summary

 TemperatureHumidityPressure
High47 °F (Oct 10, 2:00 PM)96% (Oct 12, 2:00 AM)30.13 "Hg (Oct 12, 2:00 AM)
Low21 °F (Oct 18, 8:00 AM)50% (Oct 10, 3:00 PM)29.41 "Hg (Oct 20, 2:00 AM)
Average36 °F77%29.86 "Hg
* Reported Oct 9 5:00 PM — Oct 24 5:00 PM, Mosjøen, Weather by CustomWeather, © 2014

Note: Actual official high and low records may vary slightly from our data, if they occured in-between our weather recording intervals... More about our weather records

Advertising

Mosjøen weather history for previous 24 hours

 ConditionsComfort  
Time TempWeatherWind HumidityBarometerVisibility
5:00 PM
Oct 24
45 °FQuite cool.6 mph82%29.68 "HgN/A
4:00 PM44 °FQuite cool.2 mph83%29.69 "HgN/A
3:00 PM44 °FQuite cool.8 mph81%29.68 "HgN/A
2:00 PM44 °FQuite cool.6 mph84%29.68 "HgN/A
1:00 PM44 °FQuite cool.5 mph80%29.67 "HgN/A
12:00 PM44 °FQuite cool.5 mph77%29.65 "HgN/A
11:00 AM44 °FQuite cool.7 mph74%29.64 "HgN/A
10:00 AM41 °FQuite cool.5 mph81%29.64 "HgN/A
9:00 AM39 °FChilly.3 mph85%29.64 "HgN/A
8:00 AM39 °FChilly.5 mph85%29.65 "HgN/A
7:00 AM40 °FChilly.2 mph79%29.67 "HgN/A
6:00 AM39 °FChilly.3 mph82%29.68 "HgN/A
5:00 AM39 °FChilly.3 mph83%29.71 "HgN/A
4:00 AM37 °FChilly.1 mph88%29.74 "HgN/A
3:00 AM37 °FChilly.2 mph91%29.75 "HgN/A
2:00 AM38 °FChilly.2 mph88%29.78 "HgN/A
1:00 AM38 °FChilly.2 mph88%29.79 "HgN/A
12:00 AM37 °FChilly.2 mph90%29.79 "HgN/A
11:00 PM
Oct 23
37 °FChilly.3 mph90%29.80 "HgN/A
10:00 PM38 °FChilly.5 mph85%29.81 "HgN/A
9:00 PM38 °FChilly.6 mph88%29.81 "HgN/A
8:00 PM37 °FChilly.2 mph91%29.81 "HgN/A
7:00 PM36 °FChilly.3 mph91%29.83 "HgN/A
6:00 PM39 °FChilly.7 mph81%29.80 "HgN/A
Weather by CustomWeather, © 2014

See weather overviewHow to use our weather pages